• In Russia
  • List of Countries
  • For 7 days
  • Water Temperature
  • Weather Map
  • Weather Widgets
  • user-avatar
    Login

    Hourly Weather Encamp

    Today, 22 November, Friday

    Time Temperature Precipitation Wind Pressure Humidity
    00:00 -3°C° 0 mm 2 mps 614 mmHg 91%
    01:00 -3°C° 0 mm 2 mps 613 mmHg 90%
    02:00 -3°C° 0 mm 2 mps 613 mmHg 89%
    03:00 -3°C° 0 mm 2 mps 612 mmHg 88%
    04:00 -3°C° 0 mm 2 mps 612 mmHg 88%
    05:00 -3°C° 0 mm 2 mps 612 mmHg 89%
    06:00 -3°C° 0 mm 2 mps 612 mmHg 89%
    07:00 -2°C° 0 mm 3 mps 612 mmHg 88%
    08:00 -1°C° 0 mm 3 mps 612 mmHg 88%
    09:00 0°C° 0 mm 3 mps 612 mmHg 88%
    10:00 0°C° 0.2 mm 3 mps 611 mmHg 89%
    11:00 0°C° 0.2 mm 4 mps 611 mmHg 90%
    12:00 0°C° 0.2 mm 4 mps 610 mmHg 91%
    13:00 0°C° 0.7 mm 4 mps 610 mmHg 92%
    14:00 0°C° 0.7 mm 4 mps 609 mmHg 94%
    15:00 0°C° 0.7 mm 4 mps 608 mmHg 96%
    16:00 0°C° 1.2 mm 4 mps 607 mmHg 96%
    17:00 0°C° 1.2 mm 4 mps 607 mmHg 96%
    18:00 0°C° 1.2 mm 4 mps 606 mmHg 97%
    19:00 0°C° 5.2 mm 4 mps 606 mmHg 97%
    20:00 +1°C° 5.2 mm 3 mps 605 mmHg 97%
    21:00 +1°C° 5.2 mm 3 mps 605 mmHg 97%
    22:00 +1°C° 3 mm 3 mps 605 mmHg 97%
    23:00 +1°C° 3 mm 3 mps 604 mmHg 97%

    Tomorrow, 23 November, Saturday

    Time Temperature Precipitation Wind Pressure Humidity
    00:00 +2°C° 3 mm 3 mps 604 mmHg 97%
    01:00 +1°C° 0.5 mm 3 mps 603 mmHg 97%
    02:00 +1°C° 0.5 mm 2 mps 603 mmHg 96%
    03:00 +1°C° 0.5 mm 2 mps 603 mmHg 96%
    04:00 +1°C° 0 mm 1 mps 603 mmHg 96%
    05:00 +1°C° 0 mm 1 mps 603 mmHg 95%
    06:00 0°C° 0 mm 1 mps 603 mmHg 95%
    07:00 +1°C° 0.3 mm 1 mps 604 mmHg 94%
    08:00 +1°C° 0.3 mm 2 mps 604 mmHg 93%
    09:00 +1°C° 0.3 mm 2 mps 605 mmHg 93%
    10:00 +1°C° 1.2 mm 2 mps 606 mmHg 93%
    11:00 +2°C° 1.2 mm 2 mps 606 mmHg 93%
    12:00 +2°C° 1.2 mm 2 mps 606 mmHg 94%
    13:00 +1°C° 0.4 mm 2 mps 607 mmHg 92%
    14:00 +1°C° 0.4 mm 2 mps 607 mmHg 91%
    15:00 +1°C° 0.4 mm 2 mps 608 mmHg 90%
    16:00 -1°C° 0 mm 2 mps 608 mmHg 91%
    17:00 -2°C° 0 mm 3 mps 609 mmHg 92%
    18:00 -4°C° 0 mm 3 mps 609 mmHg 93%
    19:00 -5°C° 0 mm 3 mps 610 mmHg 92%
    20:00 -5°C° 0 mm 3 mps 610 mmHg 92%
    21:00 -5°C° 0 mm 3 mps 611 mmHg 92%
    22:00 -5°C° 0 mm 3 mps 611 mmHg 92%
    23:00 -5°C° 0 mm 3 mps 612 mmHg 93%

    Day after tomorrow, 24 November, Sunday

    Time Temperature Precipitation Wind Pressure Humidity
    00:00 -5°C° 0 mm 3 mps 612 mmHg 93%
    01:00 -5°C° 0 mm 3 mps 613 mmHg 93%
    02:00 -5°C° 0 mm 3 mps 613 mmHg 92%
    03:00 -5°C° 0 mm 3 mps 613 mmHg 92%
    04:00 -5°C° 0 mm 3 mps 614 mmHg 92%
    05:00 -5°C° 0 mm 3 mps 614 mmHg 92%
    06:00 -5°C° 0 mm 3 mps 614 mmHg 93%
    07:00 -4°C° 0.1 mm 3 mps 615 mmHg 91%
    08:00 -2°C° 0.1 mm 3 mps 616 mmHg 90%
    09:00 -1°C° 0.1 mm 2 mps 617 mmHg 88%
    10:00 +1°C° 0 mm 2 mps 618 mmHg 86%
    11:00 +2°C° 0 mm 2 mps 618 mmHg 83%
    12:00 +2°C° 0 mm 2 mps 618 mmHg 80%
    13:00 +2°C° 0 mm 2 mps 618 mmHg 81%
    14:00 +3°C° 0 mm 1 mps 618 mmHg 82%
    15:00 +3°C° 0 mm 1 mps 618 mmHg 83%
    16:00 +1°C° 0 mm 1 mps 618 mmHg 84%
    17:00 0°C° 0 mm 1 mps 618 mmHg 84%
    18:00 -4°C° 0 mm 2 mps 617 mmHg 85%
    19:00 -3°C° 0 mm 2 mps 618 mmHg 80%
    20:00 -1°C° 0 mm 1 mps 618 mmHg 76%
    21:00 -1°C° 0 mm 1 mps 618 mmHg 71%
    22:00 -1°C° 0 mm 1 mps 618 mmHg 68%
    23:00 -3°C° 0 mm 2 mps 618 mmHg 65%

    25 November, Monday

    Time Temperature Precipitation Wind Pressure Humidity
    00:00 -3°C° 0 mm 2 mps 618 mmHg 62%
    01:00 -2°C° 0 mm 2 mps 618 mmHg 60%
    02:00 -2°C° 0 mm 2 mps 618 mmHg 59%
    03:00 -2°C° 0 mm 2 mps 618 mmHg 57%
    04:00 -1°C° 0 mm 2 mps 619 mmHg 64%
    05:00 +1°C° 0 mm 2 mps 619 mmHg 70%
    06:00 +2°C° 0 mm 2 mps 620 mmHg 76%
    07:00 +3°C° 0 mm 2 mps 620 mmHg 80%
    08:00 +5°C° 0 mm 1 mps 621 mmHg 84%
    09:00 +6°C° 0 mm 1 mps 622 mmHg 87%
    10:00 +6°C° 0 mm 1 mps 622 mmHg 86%
    11:00 +7°C° 0 mm 1 mps 622 mmHg 84%
    12:00 +7°C° 0 mm 0 mps 623 mmHg 83%
    13:00 +6°C° 0 mm 0 mps 622 mmHg 85%
    14:00 +6°C° 0 mm 1 mps 622 mmHg 88%
    15:00 +6°C° 0 mm 1 mps 622 mmHg 91%
    16:00 +5°C° 0 mm 1 mps 622 mmHg 93%
    17:00 +4°C° 0 mm 1 mps 621 mmHg 94%
    18:00 +4°C° 0 mm 1 mps 621 mmHg 96%
    19:00 +3°C° 0 mm 1 mps 621 mmHg 96%
    20:00 +3°C° 0 mm 1 mps 622 mmHg 95%
    21:00 +3°C° 0 mm 1 mps 622 mmHg 95%
    22:00 +3°C° 0 mm 1 mps 621 mmHg 94%
    23:00 +2°C° 0 mm 1 mps 621 mmHg 93%

    26 November, Tuesday

    Time Temperature Precipitation Wind Pressure Humidity
    00:00 +2°C° 0 mm 1 mps 621 mmHg 92%
    01:00 +2°C° 0 mm 1 mps 621 mmHg 92%
    02:00 +2°C° 0 mm 1 mps 620 mmHg 91%
    03:00 +1°C° 0 mm 1 mps 620 mmHg 91%
    04:00 +1°C° 0 mm 1 mps 620 mmHg 91%
    05:00 +1°C° 0 mm 1 mps 619 mmHg 91%
    06:00 -1°C° 0 mm 2 mps 619 mmHg 92%
    07:00 +1°C° 0 mm 2 mps 620 mmHg 90%
    08:00 +3°C° 0 mm 2 mps 620 mmHg 89%
    09:00 +4°C° 0 mm 2 mps 620 mmHg 87%
    10:00 +5°C° 0 mm 2 mps 620 mmHg 86%
    11:00 +6°C° 0 mm 2 mps 620 mmHg 85%
    12:00 +7°C° 0 mm 2 mps 620 mmHg 84%
    13:00 +7°C° 0 mm 2 mps 620 mmHg 86%
    14:00 +6°C° 0 mm 2 mps 619 mmHg 89%
    15:00 +6°C° 0 mm 2 mps 619 mmHg 91%
    16:00 +5°C° 0 mm 2 mps 619 mmHg 92%
    17:00 +5°C° 0 mm 2 mps 618 mmHg 94%
    18:00 +4°C° 0 mm 2 mps 618 mmHg 95%
    19:00 +4°C° 0 mm 2 mps 618 mmHg 95%
    20:00 +4°C° 0 mm 2 mps 618 mmHg 95%
    21:00 +4°C° 0 mm 2 mps 618 mmHg 96%
    22:00 +4°C° 0 mm 2 mps 618 mmHg 96%
    23:00 +4°C° 0 mm 2 mps 618 mmHg 96%

    27 November, Wednesday

    Time Temperature Precipitation Wind Pressure Humidity
    00:00 +4°C° 0 mm 2 mps 618 mmHg 96%
    01:00 +4°C° 0 mm 2 mps 618 mmHg 96%
    02:00 +5°C° 0 mm 2 mps 618 mmHg 96%
    03:00 +5°C° 0 mm 2 mps 618 mmHg 97%
    04:00 +5°C° 0 mm 2 mps 618 mmHg 97%
    05:00 +4°C° 0 mm 2 mps 617 mmHg 97%
    06:00 +5°C° 0 mm 1 mps 617 mmHg 97%
    07:00 +6°C° 0 mm 1 mps 618 mmHg 97%
    08:00 +6°C° 0 mm 1 mps 618 mmHg 96%
    09:00 +6°C° 0 mm 1 mps 619 mmHg 96%
    10:00 +7°C° 0 mm 1 mps 619 mmHg 95%
    11:00 +7°C° 0 mm 1 mps 619 mmHg 95%
    12:00 +8°C° 0 mm 1 mps 619 mmHg 94%
    13:00 +7°C° 0.1 mm 1 mps 619 mmHg 95%
    14:00 +7°C° 0.1 mm 1 mps 619 mmHg 96%
    15:00 +7°C° 0.1 mm 1 mps 619 mmHg 97%
    16:00 +6°C° 0.1 mm 1 mps 619 mmHg 98%
    17:00 +6°C° 0.1 mm 1 mps 619 mmHg 98%
    18:00 +5°C° 0.1 mm 1 mps 620 mmHg 99%
    19:00 +5°C° 0.1 mm 1 mps 620 mmHg 98%
    20:00 +4°C° 0.1 mm 0 mps 620 mmHg 98%
    21:00 +3°C° 0.1 mm 0 mps 620 mmHg 98%
    22:00 +3°C° 0 mm 0 mps 620 mmHg 98%
    23:00 +3°C° 0 mm 0 mps 620 mmHg 97%
    Show more